Weather History for Avalon, VC

Change the Weather History Date:

Friday, June 7, 2013

  Actual Average (YMML) Record (YMML)
Temperature  
Mean Temperature 50 °F -  
Max Temperature 59 °F 57 °F 68 °F (2005)
Min Temperature 41 °F 44 °F 35 °F (2006)
Degree Days  
Heating Degree Days 14    
Moisture  
Dew Point 46 °F    
Average Humidity 78    
Maximum Humidity 94    
Minimum Humidity 47    
Precipitation  
Precipitation 0.01 in - - ()
Sea Level Pressure  
Sea Level Pressure 30.11 in    
Wind  
Wind Speed 13 mph ()    
Max Wind Speed 21 mph    
Max Gust Speed -    
Visibility 6.1 miles    
Events Rain    
Averages and records for this station are not official NWS values.
T = Trace of Precipitation, MM = Missing Value Source: Averaged Metar Reports

Daily Weather History Graph

Daily Weather History Graph

Search for Another Location

Airport:

Trip Planner

Search our weather history database for the weather conditions in past years. The results will help you decide how hot, cold, wet, or windy it might be!

Date:

Astronomy

Jun. 07, 2013 Rise Set
Actual Time 7:32 AM AEST 5:09 PM AEST
Civil Twilight 7:03 AM AEST 5:38 PM AEST
Nautical Twilight 6:30 AM AEST 6:11 PM AEST
Astronomical Twilight 5:58 AM AEST 6:43 PM AEST
Moon 5:58 AM AEST (6/7) 4:13 PM AEST (6/7)
Length of Visible Light 10h 35m
Length of Day
9h 36m
Waning Crescent, 2% of the Moon is Illuminated
Jun 7
Waning Crescent
Jun 9
New
Jun 17
First Quarter
Jun 23
Full
Jun 30
Last Quarter

Hourly Weather History & Observations

Time (AEST) Temp. Windchill Dew Point Humidity Pressure Visibility Wind Dir Wind Speed Gust Speed Precip Events Conditions
12:00 AM 56 °F - 47 °F 63% 29.92 in - North 18.4 mph - -  
12:00 AM 57.2 °F - 46.4 °F 67% 29.92 in 6.2 mi North 18.4 mph - N/A   Scattered Clouds
12:30 AM 55.4 °F - 48.2 °F 77% 29.92 in 6.2 mi North 13.8 mph - N/A   Mostly Cloudy
1:00 AM 57.2 °F - 48.2 °F 72% 29.92 in 6.2 mi North 12.7 mph - N/A   Overcast
1:30 AM 57.2 °F - 48.2 °F 72% 29.89 in 6.2 mi North 15.0 mph - N/A   Overcast
2:00 AM 59.0 °F - 48.2 °F 67% 29.89 in 6.2 mi NNW 18.4 mph - N/A Rain Light Rain Showers
2:30 AM 59.0 °F - 48.2 °F 67% 29.92 in 6.2 mi NNW 19.6 mph - N/A Rain Light Rain Showers
3:00 AM 54 °F - 51 °F 86% 29.93 in - WSW 11.5 mph - -   Overcast
3:00 AM 55.4 °F - 51.8 °F 88% 29.92 in 6.2 mi WSW 11.5 mph - N/A Rain Rain Showers
3:20 AM 53.6 °F - 51.8 °F 94% 29.92 in 3.7 mi WSW 11.5 mph - N/A Rain Heavy Rain Showers
3:30 AM 53.6 °F - 51.8 °F 94% 29.92 in 5.0 mi WNW 12.7 mph - N/A Rain Heavy Rain
4:00 AM 53.6 °F - 51.8 °F 94% 29.92 in 4.3 mi WNW 17.3 mph - N/A Rain Rain
4:07 AM 53.6 °F - 51.8 °F 94% 29.92 in 6.2 mi WNW 17.3 mph - N/A Rain Light Rain
4:30 AM 53.6 °F - 51.8 °F 94% 29.92 in 6.2 mi WNW 11.5 mph - N/A Rain Rain
5:00 AM 51.8 °F - 50.0 °F 94% 29.92 in 6.2 mi WNW 10.4 mph - N/A Rain Rain
5:30 AM 51.8 °F - 50.0 °F 94% 29.92 in 6.2 mi North 11.5 mph - N/A Rain Light Rain
6:00 AM 52 °F - 51 °F 93% 29.94 in - NNW 10.4 mph - -  
6:00 AM 51.8 °F - 50.0 °F 94% 29.92 in 6.2 mi NNW 10.4 mph - N/A   Mostly Cloudy
6:30 AM 53.6 °F - 50.0 °F 88% 29.95 in 6.2 mi WNW 12.7 mph - N/A   Drizzle
7:00 AM 53.6 °F - 50.0 °F 88% 29.98 in 6.2 mi WNW 17.3 mph - N/A Rain Light Rain Showers
7:30 AM 53.6 °F - 50.0 °F 88% 30.01 in 6.2 mi WNW 16.1 mph - N/A   Mostly Cloudy
8:00 AM 53.6 °F - 50.0 °F 88% 30.01 in 6.2 mi WNW 20.7 mph - N/A   Overcast
8:30 AM 51.8 °F - 48.2 °F 88% 30.04 in 6.2 mi West 19.6 mph - N/A Rain Light Rain Showers
9:00 AM 53 °F - 49 °F 82% 30.08 in - West 13.8 mph - -   Overcast
9:00 AM 53.6 °F - 50.0 °F 88% 30.06 in 6.2 mi West 13.8 mph - N/A   Overcast
9:30 AM 53.6 °F - 48.2 °F 82% 30.09 in 6.2 mi West 16.1 mph - N/A   Overcast
10:00 AM 53.6 °F - 48.2 °F 82% 30.12 in 6.2 mi West 15.0 mph - N/A   Mostly Cloudy
10:30 AM 55.4 °F - 48.2 °F 77% 30.12 in 6.2 mi West 16.1 mph - N/A   Mostly Cloudy
11:00 AM 55.4 °F - 46.4 °F 72% 30.15 in 6.2 mi West 18.4 mph - N/A   Scattered Clouds
11:30 AM 55.4 °F - 44.6 °F 67% 30.15 in 6.2 mi WSW 19.6 mph - N/A   Unknown
12:00 PM 56 °F - 42 °F 47% 30.17 in - West 17.3 mph - -  
12:00 PM 57.2 °F - 41.0 °F 55% 30.15 in 6.2 mi West 17.3 mph - N/A   Scattered Clouds
12:30 PM 57.2 °F - 41.0 °F 55% 30.15 in 6.2 mi WSW 18.4 mph - N/A   Unknown
1:00 PM 57.2 °F - 39.2 °F 51% 30.15 in 6.2 mi West 15.0 mph - N/A   Unknown
1:30 PM 57.2 °F - 41.0 °F 55% 30.15 in 6.2 mi WSW 15.0 mph - N/A   Mostly Cloudy
2:00 PM 59.0 °F - 42.8 °F 55% 30.18 in 6.2 mi West 15.0 mph - N/A   Mostly Cloudy
2:30 PM 57.2 °F - 44.6 °F 63% 30.18 in 6.2 mi West 11.5 mph - N/A Rain Light Rain Showers
3:00 PM 57 °F - 43 °F 49% 30.21 in - WNW 13.8 mph - -  
3:00 PM 57.2 °F - 42.8 °F 59% 30.18 in 6.2 mi WNW 13.8 mph - N/A   Scattered Clouds
3:30 PM 55.4 °F - 42.8 °F 63% 30.21 in 6.2 mi West 17.3 mph - N/A   Mostly Cloudy
4:00 PM 55.4 °F - 44.6 °F 67% 30.21 in 6.2 mi WNW 13.8 mph - N/A   Mostly Cloudy
4:30 PM 53.6 °F - 42.8 °F 67% 30.24 in 6.2 mi West 11.5 mph - N/A   Unknown
5:00 PM 51.8 °F - 42.8 °F 71% 30.24 in 6.2 mi West 6.9 mph - N/A   Unknown
5:30 PM 50.0 °F - 42.8 °F 76% 30.24 in 6.2 mi West 9.2 mph - N/A   Unknown
6:00 PM 48 °F - 42 °F 72% 30.27 in - West 6.9 mph - -  
6:00 PM 48.2 °F - 42.8 °F 82% 30.24 in 6.2 mi West 6.9 mph - N/A   Unknown
6:30 PM 48.2 °F - 42.8 °F 82% 30.27 in 6.2 mi WNW 9.2 mph - N/A   Unknown
7:00 PM 46.4 °F 42.4 °F 42.8 °F 87% 30.27 in 6.2 mi NW 8.1 mph - N/A   Unknown
7:30 PM 44.6 °F 40.7 °F 41.0 °F 87% 30.30 in 6.2 mi NW 6.9 mph - N/A   Unknown
8:00 PM 42.8 °F 38.0 °F 39.2 °F 87% 30.30 in 6.2 mi NNW 8.1 mph - N/A   Unknown
8:30 PM 42.8 °F 39.3 °F 41.0 °F 93% 30.33 in 6.2 mi NNW 5.8 mph - N/A   Unknown
9:00 PM 44 °F - 41 °F 83% 30.34 in - NW 6.9 mph - -  
9:00 PM 44.6 °F 40.7 °F 41.0 °F 87% 30.33 in 6.2 mi NW 6.9 mph - N/A   Unknown
9:30 PM 42.8 °F 38.6 °F 39.2 °F 87% 30.33 in 6.2 mi NW 6.9 mph - N/A   Unknown
10:00 PM 42.8 °F 38.6 °F 39.2 °F 87% 30.33 in 6.2 mi NW 6.9 mph - N/A   Unknown
10:30 PM 42.8 °F 38.6 °F 39.2 °F 87% 30.33 in 6.2 mi NW 6.9 mph - N/A   Unknown
11:00 PM 42.8 °F 39.3 °F 39.2 °F 87% 30.33 in 6.2 mi NW 5.8 mph - N/A   Unknown
11:30 PM 41.0 °F 36.4 °F 37.4 °F 87% 30.36 in 6.2 mi NW 6.9 mph - N/A   Unknown